Location: Kaltenbach
(49.2000°N, 7.7500°E)
Time: 18:02:44
(UTC+00:00)

USA 267 - Pass Details

Date: 24 January 2020
Orbit: 1099 x 1108 km, 123.0° (Epoch: 10 February)

Event Time Altitude Azimuth Distance (km) Brightness Sun altitude
Exits shadow 16:42:58 - 56° (ENE) 3,353 5.1 -5.4°
Reaches altitude 10° 16:43:59 10° 57° (ENE) 2,964 4.9 -5.6°
Maximum altitude 16:50:34 83° 146° (SE) 1,116 3.3 -6.6°
Drops below altitude 10° 16:57:07 10° 234° (SW) 2,958 7.0 -7.6°
Sets 16:59:36 0° 235° (SW) 3,915 8.0 -7.9°
